Location: Pine Mountain Observatory
(43.7910°N, 120.9377°W)
Time: 02:48:50
(UTC-07:00)

Explorer 11/Cluster Stage 4 - Pass Details

Date: 27 May 2019
Orbit: 467 x 1260 km, 28.8° (Epoch: 19 June)

Event Time Altitude Azimuth Distance (km) Brightness Sun altitude
Rises 02:37:31 0° 223° (SW) 3,733 - -21.3°
Reaches altitude 10° 02:41:50 10° 200° (SSW) 2,590 - -20.9°
Maximum altitude 02:44:46 14° 172° (S) 2,195 - -20.7°
Drops below altitude 10° 02:47:27 10° 142° (SE) 2,316 - -20.5°
Exits shadow 02:47:48 - 139° (SE) 2,364 8.8 -20.5°
Sets 02:50:55 0° 117° (ESE) 3,061 9.6 -20.2°
